SCP
-0 -0 -0 -0 -0 -0 -0 -0 0 0 0 0 0 0 0 0 -0 -0 -0 0 0 0 0 0 0 0 0 0 0 0 0 -0 0
-0 -0 -0 -0 -0 -0 -0 -0 -0 0 -0 0 0 0 0 0 -0 -0 -0 -0 0 0 0 0 0 0 0 0 0 0 0 0 -0
-0 -0 -0 -0 -0 -0 -0 -0 -0 0 0 -0 0 0 0 0 -0 -0 -0 -0 -0 0 0 0 0 0 0 0 0 0 0 0 0
-0 -0 -0 -0 -0 -0 0 0 -0 -0 0 0 0 0 0 0 0 -0 -0 -0 -0 -0 0 0 0 0 0 0 0 0 0 0 0
-0 -0 -0 0 -0 -0 -0 -0 0 -0 0 0 0 0 0 0 0 -0 -0 -0 -0 0 0 0 0 0 0 0 0 0 0 0 0
0 0 0 0 0 -0 -0 -0 -0 0 0 0 0 0 0 0 0 0 0 -0 -0 0 0 0 0 0 0 0 0 0 0 0 0
0 0 -0 0 0 -0 -0 -0 0 0 0 0 0 0 0 0 0 0 0 0 0 0 0 0 0 0 0 0 0 0 0 0 0
0 0 -0 0 -0 -0 -0 -0 -0 -0 -0 0 0 0 0 0 0 0 0 0 0 0 0 0 0 0 0 0 0 0 0 0 0
0 -0 0 0 0 0 -0 -0 -0 -0 -0 -0 0 0 0 0 0 0 0 0 0 0 0 0 0 0 0 0 0 0 0 0 0
0 0 0 0 0 0 -0 -0 -0 -0 -0 -0 0 1 0 0 0 0 0 0 0 0 0 0 0 0 0 0 0 0 0 0 0
0 0 0 0 0 0 -0 -0 -0 0 -0 0 -0 0 0 -0 0 0 0 0 0 0 0 0 0 0 0 -0 -0 -0 -0 0 0
0 0 0 0 0 0 0 0 -0 -0 -0 -0 -0 0 0 0 -0 0 0 0 0 0 0 0 0 0 0 0 0 0 0 0 0
0 0 0 0 0 0 0 0 0 -0 -0 -0 -0 -0 -0 -0 0 0 0 0 0 0 0 0 -0 0 0 0 0 0 0 0 0
0 0 0 1 0 0 0 0 0 0 0 -0 -0 -0 -0 -0 -0 -0 -0 0 0 0 -0 -0 0 0 0 0 0 0 0 0 0
0 0 0 1 1 0 0 0 0 0 0 0 0 0 -0 -0 -0 -0 0 -0 0 0 0 0 0 0 0 0 0 0 0 0 0
0 0 0 0 1 1 0 0 0 0 0 0 0 0 0 0 0 0 0 0 0 0 0 0 0 0 0 0 0 0 0 0 0
0 0 0 0 1 1 1 0 0 0 1 1 1 0 0 0 0 0 0 0 0 0 0 0 0 0 0 0 0 0 0 0 0
0 0 0 0 0 1 2 1 0 1 1 1 1 1 1 1 0 0 0 0 0 0 0 0 0 0 0 0 0 0 0 0 0
0 0 0 0 0 1 2 1 1 0 1 1 1 1 0 0 0 0 0 0 0 0 0 0 0 0 0 0 0 0 0 0 0
0 0 0 0 0 1 0 0 0 0 0 1 1 0 0 0 0 0 0 0 0 0 0 0 0 0 0 0 0 0 0 0 0
Wind_Speed_500mb
37 69 66 65 69 70 72 70 72 64 40 49 47 48 48 44 45 42 45 42 40 43 40 31 35 31 25 24 18 15 17 17 13
41 57 74 71 71 73 73 70 71 49 54 51 49 48 50 50 51 45 47 43 39 38 42 34 33 30 28 25 24 18 14 13 13
38 48 64 66 70 74 77 76 71 79 54 59 49 49 52 52 51 48 47 41 39 38 34 31 27 27 28 28 29 27 24 20 20
38 47 55 64 69 72 74 75 74 80 74 61 55 50 54 54 53 50 50 44 38 39 44 40 34 28 28 29 35 37 35 26 25
17 40 43 55 64 67 74 76 73 74 80 68 57 49 55 57 53 54 55 48 43 36 35 39 37 34 31 32 33 40 37 36 29
12 19 34 41 51 64 72 77 66 71 73 72 59 53 54 56 58 57 58 55 49 46 42 43 40 36 34 30 26 28 34 38 42
30 18 32 44 46 57 66 72 69 71 64 68 68 57 55 53 54 56 56 52 48 49 46 43 42 40 38 32 31 35 40 41 43
39 33 27 26 36 57 64 68 67 68 67 66 63 58 48 49 45 51 52 49 47 45 44 42 41 38 33 35 36 34 34 32 35
44 48 32 32 30 47 63 66 67 59 63 66 63 58 58 52 46 46 51 46 43 40 39 37 37 36 36 38 36 34 38 40 40
57 60 40 44 37 44 60 65 66 58 61 48 53 64 58 54 51 46 45 43 40 37 37 35 36 39 38 43 34 44 40 38 45
46 45 48 50 43 46 53 60 64 67 69 66 64 39 49 68 61 52 42 38 34 35 30 29 27 35 34 27 30 28 34 38 46
51 43 31 40 40 45 51 59 61 63 70 75 54 52 56 71 67 52 51 37 38 37 26 30 19 31 28 27 22 28 34 36 35
44 30 25 36 34 33 37 45 53 57 60 63 74 59 55 51 69 60 43 41 38 34 15 30 27 31 26 26 29 29 28 28 29
36 34 30 21 28 27 29 35 42 50 53 54 51 59 59 71 57 55 43 33 37 34 25 27 29 28 26 22 22 20 19 18 20
33 29 21 15 26 28 30 29 35 44 46 43 46 41 44 49 48 42 40 36 30 28 27 29 27 26 24 19 14 10 14 11 13
38 26 23 14 22 28 28 27 30 35 40 45 42 40 40 38 39 38 37 33 30 27 25 25 23 21 19 15 13 19 17 19 26
42 22 20 15 20 28 29 29 30 30 36 43 39 39 39 39 42 42 35 29 26 23 24 24 19 14 10 14 11 13 16 24 27
37 16 14 13 11 25 34 34 31 28 31 38 39 37 36 38 39 36 36 32 26 22 21 17 13 14 16 16 17 17 22 24 23
38 23 11 13 11 17 32 41 37 33 32 33 38 39 38 39 40 39 33 29 28 25 20 17 14 15 18 22 24 26 27 29 29
40 39 14 9 17 17 26 32 37 25 29 33 36 35 35 37 37 35 35 33 31 24 20 19 19 21 22 22 22 25 29 31 33
Wind_Direction_500mb
206 211 215 215 219 220 218 211 203 208 211 214 210 203 200 195 192 196 201 205 213 213 208 214 206 208 208 208 215 224 228 234 250
197 210 215 219 220 219 218 215 208 207 216 214 211 206 201 197 197 202 203 207 217 220 220 223 210 218 220 214 218 232 240 250 260
212 208 212 219 217 220 222 221 213 214 217 213 210 208 204 200 197 198 199 209 212 216 214 217 223 232 228 226 229 237 246 260 262
234 216 211 212 216 220 223 219 215 211 213 210 213 210 208 204 203 202 199 203 209 222 221 224 226 227 235 243 247 246 244 249 258
257 228 222 218 220 220 219 220 218 214 213 212 215 217 211 212 209 207 206 208 214 211 209 216 225 236 246 256 259 238 237 246 260
282 214 206 213 215 220 218 218 216 219 216 214 212 221 218 216 216 215 215 216 216 220 225 228 231 240 252 259 257 245 240 258 264
277 215 204 214 229 227 221 217 210 215 212 213 214 219 222 222 219 218 220 221 223 224 227 230 235 243 252 249 254 255 258 260 262
292 247 205 213 232 226 215 214 208 214 219 212 210 215 222 226 226 221 221 223 225 229 233 239 239 239 242 246 251 256 261 260 263
296 271 233 224 230 221 218 218 220 212 218 218 205 209 223 225 230 224 221 219 220 223 230 235 235 238 245 247 251 257 259 266 268
305 293 259 231 223 226 224 226 224 208 210 205 199 212 225 227 226 221 218 218 221 220 226 232 238 242 252 254 263 254 260 269 270
332 312 278 241 234 224 227 229 225 208 208 187 194 196 224 233 230 222 208 212 219 230 242 256 260 256 251 240 242 247 253 261 259
338 315 278 253 251 229 239 233 225 215 212 221 207 215 207 228 230 225 211 212 222 223 244 255 273 268 252 247 246 245 249 255 260
342 313 283 243 233 232 228 224 222 219 217 213 208 214 185 217 229 227 215 211 217 208 230 224 241 252 241 241 247 249 253 261 269
350 339 321 247 210 217 224 224 221 220 220 218 219 222 219 219 217 216 214 214 217 224 230 225 232 236 246 244 250 249 259 268 277
340 0 339 272 214 203 218 226 225 225 220 212 208 221 218 215 212 209 205 203 208 214 210 212 227 234 237 237 242 245 257 270 294
348 343 356 304 225 207 213 223 222 224 220 211 206 205 198 205 205 199 202 205 202 203 205 208 213 217 219 228 258 286 277 283 299
344 337 336 343 250 208 205 218 216 208 218 208 211 199 197 195 195 194 200 202 199 198 196 198 203 196 220 256 259 282 287 290 294
345 343 323 338 286 215 199 204 197 196 202 212 202 198 194 189 187 193 193 192 193 198 194 201 205 233 259 259 269 285 285 296 295
332 327 335 293 316 216 201 195 187 184 192 203 201 195 193 192 187 183 188 191 193 185 187 203 231 254 265 272 276 279 279 286 291
309 331 294 307 238 235 186 192 154 179 211 205 198 195 196 195 187 189 191 185 183 185 208 231 254 273 281 278 278 278 284 289 291
Wind_Speed_850mb
37 69 66 65 69 70 72 70 72 64 40 49 47 48 48 44 45 42 45 42 40 43 40 31 35 31 25 24 18 15 17 17 13
41 57 74 71 71 73 73 70 71 49 54 51 49 48 50 50 51 45 47 43 39 38 42 34 33 30 28 25 24 18 14 13 13
38 48 64 66 70 74 77 76 71 79 54 59 49 49 52 52 51 48 47 41 39 38 34 31 27 27 28 28 29 27 24 20 20
38 47 55 64 69 72 74 75 74 80 74 61 55 50 54 54 53 50 50 44 38 39 44 40 34 28 28 29 35 37 35 26 25
17 40 43 55 64 67 74 76 73 74 80 68 57 49 55 57 53 54 55 48 43 36 35 39 37 34 31 32 33 40 37 36 29
12 19 34 41 51 64 72 77 66 71 73 72 59 53 54 56 58 57 58 55 49 46 42 43 40 36 34 30 26 28 34 38 42
30 18 32 44 46 57 66 72 69 71 64 68 68 57 55 53 54 56 56 52 48 49 46 43 42 40 38 32 31 35 40 41 43
39 33 27 26 36 57 64 68 67 68 67 66 63 58 48 49 45 51 52 49 47 45 44 42 41 38 33 35 36 34 34 32 35
44 48 32 32 30 47 63 66 67 59 63 66 63 58 58 52 46 46 51 46 43 40 39 37 37 36 36 38 36 34 38 40 40
57 60 40 44 37 44 60 65 66 58 61 48 53 64 58 54 51 46 45 43 40 37 37 35 36 39 38 43 34 44 40 38 45
46 45 48 50 43 46 53 60 64 67 69 66 64 39 49 68 61 52 42 38 34 35 30 29 27 35 34 27 30 28 34 38 46
51 43 31 40 40 45 51 59 61 63 70 75 54 52 56 71 67 52 51 37 38 37 26 30 19 31 28 27 22 28 34 36 35
44 30 25 36 34 33 37 45 53 57 60 63 74 59 55 51 69 60 43 41 38 34 15 30 27 31 26 26 29 29 28 28 29
36 34 30 21 28 27 29 35 42 50 53 54 51 59 59 71 57 55 43 33 37 34 25 27 29 28 26 22 22 20 19 18 20
33 29 21 15 26 28 30 29 35 44 46 43 46 41 44 49 48 42 40 36 30 28 27 29 27 26 24 19 14 10 14 11 13
38 26 23 14 22 28 28 27 30 35 40 45 42 40 40 38 39 38 37 33 30 27 25 25 23 21 19 15 13 19 17 19 26
42 22 20 15 20 28 29 29 30 30 36 43 39 39 39 39 42 42 35 29 26 23 24 24 19 14 10 14 11 13 16 24 27
37 16 14 13 11 25 34 34 31 28 31 38 39 37 36 38 39 36 36 32 26 22 21 17 13 14 16 16 17 17 22 24 23
38 23 11 13 11 17 32 41 37 33 32 33 38 39 38 39 40 39 33 29 28 25 20 17 14 15 18 22 24 26 27 29 29
40 39 14 9 17 17 26 32 37 25 29 33 36 35 35 37 37 35 35 33 31 24 20 19 19 21 22 22 22 25 29 31 33
Wind_Direction_850mb
206 211 215 215 219 220 218 211 203 208 211 214 210 203 200 195 192 196 201 205 213 213 208 214 206 208 208 208 215 224 228 234 250
197 210 215 219 220 219 218 215 208 207 216 214 211 206 201 197 197 202 203 207 217 220 220 223 210 218 220 214 218 232 240 250 260
212 208 212 219 217 220 222 221 213 214 217 213 210 208 204 200 197 198 199 209 212 216 214 217 223 232 228 226 229 237 246 260 262
234 216 211 212 216 220 223 219 215 211 213 210 213 210 208 204 203 202 199 203 209 222 221 224 226 227 235 243 247 246 244 249 258
257 228 222 218 220 220 219 220 218 214 213 212 215 217 211 212 209 207 206 208 214 211 209 216 225 236 246 256 259 238 237 246 260
282 214 206 213 215 220 218 218 216 219 216 214 212 221 218 216 216 215 215 216 216 220 225 228 231 240 252 259 257 245 240 258 264
277 215 204 214 229 227 221 217 210 215 212 213 214 219 222 222 219 218 220 221 223 224 227 230 235 243 252 249 254 255 258 260 262
292 247 205 213 232 226 215 214 208 214 219 212 210 215 222 226 226 221 221 223 225 229 233 239 239 239 242 246 251 256 261 260 263
296 271 233 224 230 221 218 218 220 212 218 218 205 209 223 225 230 224 221 219 220 223 230 235 235 238 245 247 251 257 259 266 268
305 293 259 231 223 226 224 226 224 208 210 205 199 212 225 227 226 221 218 218 221 220 226 232 238 242 252 254 263 254 260 269 270
332 312 278 241 234 224 227 229 225 208 208 187 194 196 224 233 230 222 208 212 219 230 242 256 260 256 251 240 242 247 253 261 259
338 315 278 253 251 229 239 233 225 215 212 221 207 215 207 228 230 225 211 212 222 223 244 255 273 268 252 247 246 245 249 255 260
342 313 283 243 233 232 228 224 222 219 217 213 208 214 185 217 229 227 215 211 217 208 230 224 241 252 241 241 247 249 253 261 269
350 339 321 247 210 217 224 224 221 220 220 218 219 222 219 219 217 216 214 214 217 224 230 225 232 236 246 244 250 249 259 268 277
340 0 339 272 214 203 218 226 225 225 220 212 208 221 218 215 212 209 205 203 208 214 210 212 227 234 237 237 242 245 257 270 294
348 343 356 304 225 207 213 223 222 224 220 211 206 205 198 205 205 199 202 205 202 203 205 208 213 217 219 228 258 286 277 283 299
344 337 336 343 250 208 205 218 216 208 218 208 211 199 197 195 195 194 200 202 199 198 196 198 203 196 220 256 259 282 287 290 294
345 343 323 338 286 215 199 204 197 196 202 212 202 198 194 189 187 193 193 192 193 198 194 201 205 233 259 259 269 285 285 296 295
332 327 335 293 316 216 201 195 187 184 192 203 201 195 193 192 187 183 188 191 193 185 187 203 231 254 265 272 276 279 279 286 291
309 331 294 307 238 235 186 192 154 179 211 205 198 195 196 195 187 189 191 185 183 185 208 231 254 273 281 278 278 278 284 289 291